FW1987 Weather Reports


Display with metric or nautical units.
time (UTC)temp
F
wind
direction
speed
MPH
gust
MPH
rain 1hr
in
rain 24hr
in
rain mn
in
humidity
%
barometer
mb
20260906093008 85 102 2.0 5.0 0.00 0.00 0.00 52 1020.7
20260906091531 84 114 2.0 9.0 0.00 0.00 0.00 54 1020.8
20260906090047 83 103 3.0 9.0 0.00 0.00 0.00 53 1020.8
20260906084605 83 102 4.0 9.0 0.00 0.00 0.00 54 1020.8
20260906083042 82 67 3.0 8.0 0.00 0.00 0.00 55 1020.7
20260906081550 82 40 3.0 10.0 0.00 0.00 0.00 55 1020.7
20260906080022 81 77 4.0 9.0 0.00 0.00 0.00 58 1020.7
20260906074512 81 52 3.0 10.0 0.00 0.00 0.00 60 1020.7
20260906073028 80 60 2.0 9.0 0.00 0.00 0.00 62 1020.6
20260906071546 79 78 1.0 6.0 0.00 0.00 0.00 63 1020.4
20260906070100 78 322 2.0 6.0 0.00 0.00 0.00 65 1020.3
20260906064525 78 60 1.0 6.0 0.00 0.00 0.00 67 1020.2
20260906063048 77 360 1.0 4.0 0.00 0.00 0.00 68 1020.0
20260906061600 76 355 1.0 5.0 0.00 0.00 0.00 71 1019.8
20260906060022 75 333 1.0 4.0 0.00 0.00 0.00 73 1019.8
20260906054542 74 355 2.0 4.0 0.00 0.00 0.00 74 1019.6
20260906053001 73 34 2.0 5.0 0.00 0.00 0.00 75 1019.4
20260906051530 73 355 1.0 3.0 0.00 0.00 0.00 76 1019.4
20260906044510 73 349 1.0 2.0 0.00 0.00 0.00 75 1019.0
20260906043045 73 355 1.0 4.0 0.00 0.00 0.00 75 1018.9
20260906041511 73 14 0.0 5.0 0.00 0.00 0.00 76 1018.7
20260906040038 73 355 2.0 5.0 0.00 0.00 0.00 76 1018.4
20260906034559 73 360 1.0 4.0 0.00 0.00 0.00 77 1018.4
20260906033032 73 333 1.0 4.0 0.00 0.00 0.00 79 1018.3
20260906031540 73 360 2.0 5.0 0.00 0.00 0.00 80 1018.3
20260906030052 73 337 2.0 4.0 0.00 0.00 0.00 81 1018.3
20260906024603 73 346 1.0 3.0 0.00 0.00 0.00 82 1018.4
20260906023023 74 355 1.0 2.0 0.00 0.00 0.00 82 1018.4
20260906021535 74 336 1.0 4.0 0.00 0.00 0.00 82 1018.1
20260906020044 74 360 0.0 3.0 0.00 0.00 0.00 82 1018.1
20260906014508 75 337 1.0 2.0 0.00 0.00 0.00 82 1018.1
20260906013042 75 355 1.0 3.0 0.00 0.00 0.00 81 1018.0
20260906011550 75 28 1.0 3.0 0.00 0.00 0.00 82 1018.0
20260906010027 75 355 0.0 3.0 0.00 0.00 0.00 84 1017.8
20260906004544 75 61 0.0 1.0 0.00 0.00 0.00 85 1017.9
20260906003111 75 61 0.0 2.0 0.00 0.00 0.00 86 1017.9
20260906001521 76 53 0.0 2.0 0.00 0.00 0.00 86 1018.0
20260906000041 76 16 0.0 2.0 0.00 0.00 0.00 86 1017.9
20260905234551 76 355 0.0 3.0 0.00 0.00 0.00 86 1017.9
20260905233005 76 32 0.0 2.0 0.00 0.00 0.00 88 1017.7
20260905231531 77 336 0.0 3.0 0.00 0.00 0.00 88 1017.7
20260905230049 77 318 1.0 3.0 0.00 0.00 0.00 89 1017.6
20260905224614 77 339 1.0 2.0 0.00 0.00 0.00 88 1017.4
20260905223026 77 338 1.0 4.0 0.00 0.00 0.00 87 1017.4
20260905221606 78 142 0.0 2.0 0.00 0.00 0.00 86 1017.3
20260905220059 78 142 0.0 2.0 0.00 0.00 0.00 85 1017.1
20260905214504 79 142 0.0 0.0 0.00 0.00 0.00 84 1017.0
20260905213021 79 142 0.0 1.0 0.00 0.00 0.00 84 1016.9
20260905211546 79 142 0.0 2.0 0.00 0.00 0.00 84 1016.6
20260905210100 79 125 1.0 3.0 0.00 0.00 0.00 83 1016.5
20260905204528 80 112 1.0 3.0 0.00 0.00 0.00 83 1016.6
20260905203044 80 121 1.0 3.0 0.00 0.00 0.00 82 1016.5
20260905201615 80 159 0.0 3.0 0.00 0.00 0.00 81 1016.4
20260905200024 81 173 1.0 4.0 0.00 0.00 0.00 80 1016.4
20260905194544 81 169 1.0 5.0 0.00 0.00 0.00 80 1016.2
20260905193001 82 168 1.0 4.0 0.00 0.00 0.00 79 1016.0
20260905191515 82 176 1.0 5.0 0.00 0.00 0.00 78 1015.6
20260905190039 83 155 1.0 5.0 0.00 0.00 0.00 76 1015.5
20260905184555 84 114 0.0 2.0 0.00 0.00 0.00 74 1015.3
20260905183009 84 103 1.0 3.0 0.00 0.00 0.00 73 1015.0
20260905181539 84 128 2.0 5.0 0.00 0.00 0.00 72 1014.8
20260905180052 85 106 2.0 4.0 0.00 0.00 0.00 70 1014.6
20260905174511 86 108 1.0 5.0 0.00 0.00 0.00 70 1014.4
20260905173053 86 148 1.0 5.0 0.00 0.00 0.00 69 1014.2
20260905171600 88 90 3.0 9.0 0.00 0.00 0.00 65 1014.0
20260905170018 91 159 2.0 3.0 0.00 0.00 0.00 51 1013.9
20260905164553 92 276 1.0 3.0 0.00 0.00 0.00 47 1013.8
20260905163008 93 231 1.0 4.0 0.00 0.00 0.00 46 1013.6
20260905161525 93 259 1.0 4.0 0.00 0.00 0.00 46 1013.6
20260905160047 94 311 0.0 3.0 0.00 0.00 0.00 46 1013.6
20260905154512 93 228 1.0 5.0 0.00 0.00 0.00 47 1013.5
20260905153030 93 192 1.0 4.0 0.00 0.00 0.00 47 1013.4
20260905151550 94 256 0.0 3.0 0.00 0.00 0.00 47 1013.4
20260905150012 93 277 1.0 4.0 0.00 0.00 0.00 48 1013.4
20260905144636 93 335 2.0 5.0 0.00 0.00 0.00 48 1013.5
20260905143058 92 149 0.0 3.0 0.00 0.00 0.00 49 1013.5
20260905141522 92 297 2.0 4.0 0.00 0.00 0.00 50 1013.6
20260905140037 91 167 2.0 6.0 0.00 0.00 0.00 52 1013.8
20260905134555 90 257 1.0 6.0 0.00 0.00 0.00 52 1013.8
20260905133004 90 284 1.0 4.0 0.00 0.00 0.00 52 1014.0
20260905131531 90 281 2.0 7.0 0.00 0.00 0.00 52 1014.1
20260905130044 91 323 1.0 4.0 0.00 0.00 0.00 51 1014.2
20260905124517 90 169 2.0 5.0 0.00 0.00 0.00 51 1014.5
20260905123033 90 164 2.0 5.0 0.00 0.00 0.00 51 1014.5
20260905121550 89 313 2.0 3.0 0.00 0.00 0.00 52 1014.7
20260905120006 89 256 1.0 5.0 0.00 0.00 0.00 53 1014.9
20260905114534 89 290 2.0 6.0 0.00 0.00 0.00 52 1014.9
20260905113030 89 233 2.0 6.0 0.00 0.00 0.00 52 1014.9
20260905111552 88 219 1.0 4.0 0.00 0.00 0.00 54 1014.8
20260905110001 86 292 1.0 4.0 0.00 0.00 0.00 56 1015.0
20260905104528 86 261 1.0 6.0 0.00 0.00 0.00 57 1014.9
20260905103048 86 333 2.0 6.0 0.00 0.00 0.00 57 1015.1
20260905101604 85 68 1.0 5.0 0.00 0.00 0.00 60 1015.0
20260905100031 85 349 1.0 4.0 0.00 0.00 0.00 62 1015.1
20260905094601 85 319 0.0 4.0 0.00 0.00 0.00 62 1015.1